sat.trackr.live / text

‹ back to catalog

STARLINK-4196

NORAD 52859 · 2022-062AF

PAYLOAD ACTIVE UNKNOWN

§ Identity

Operator
Country
US
Launch date
2022-06-17
Launch site
AFETR
Launch vehicle
Mass (kg)
RCS (m²)

Purposes: comms

External: N2YO · Heavens-Above · Gunter

§ Orbital elements

Epoch: 2026-09-20T04:00:25.941024Z

Period
93.90 min
Inclination
53.1600°
Eccentricity
0.0000893
Mean motion
15.33550171 rev/d
Perigee alt
464.6 km
Apogee alt
465.8 km
Semi-major
6,843.4 km
B*
1.1104e-5
RAAN
219.2902°
Arg perigee
76.9688°
Mean anomaly
283.1414°
Rev number
23,544

§ Raw data

STARLINK-41961 52859U 22062AF  26263.16696691 -.00000007  00000+0  11104-4 0  99922 52859  53.1600 219.2902 0000893  76.9688 283.1414 15.33550171235447

JSON: /api/v1/satellites/52859 · /tle

For live sub-satellite position, see the globe view (requires WebGL).

§ Visibility from observer

Set your observer location to see the next 7 days of passes ≥ 10°. The values pass through the URL so the page stays shareable.

No JS? Fill the form by hand. The geolocation button needs JavaScript.